Terminal Aerodrome Forecast
Issued by NWS Boise, ID

Home | Current Version | Previous Version | Text Only | Print | Product List | Glossary On
Versions: 1 2 3 4 5 6 7 8 9 10 11 12 13 14 15 16 17 18 19 20 21 22 23 24 25 26 27 28 29 30
000
FTUS45 KBOI 252330
TAFBOI
TAF
KBOI 252330Z 2600/2624 31013G18KT P6SM OVC200
      TEMPO 2600/2603 31015G25KT
     FM260300 31008KT P6SM SCT150
     FM261600 31020G30KT P6SM SKC=

USA.gov is the U.S. government's official web portal to all federal, state and local government web resources and services.